Date String (YYYY-MM-DD hh:mm:ss) UTC,Instrument flags,Ambient pressure (hPa),Sample flow (lpm),Bypass flow (lpm),Sample temperature (°C),Ambient temperature (°C),ASC tube jacket temperature (°C),LED temperature (°C),Box temperature (°C),Sample RH (%),Span deviation,Mass concentration (μg/m³),Mass concentration (μg/m³),Mass concentration (μg/m³)
DateTimeUTC,F1_M11,P_M11,Q1_M11,Q2_M11,T1_M11,T2_M11,T3_M11,T4_M11,T5_M11,U1_M11,ZSPAN_M11,X0_M11,X2_M11,X1_M11
2022-09-09 14:00:00,,0827.8,5.00,0.00,30.4,29.0,00.0,39.2,32.2,23.8,0003.6,0019.00,0013.06,0011.82
2022-09-09 14:01:00,,0827.7,5.00,0.00,30.4,29.0,00.0,39.2,32.2,23.8,0003.3,0019.07,0013.03,0011.75
2022-09-09 14:02:00,,0827.8,4.99,0.00,30.4,29.0,00.0,39.2,32.2,23.7,0003.2,0019.05,0012.98,0011.68
2022-09-09 14:03:00,,0827.9,5.00,0.00,30.4,29.1,00.0,39.2,32.2,23.5,0003.1,0019.22,0012.90,0011.61
2022-09-09 14:04:00,,0827.9,4.99,0.00,30.4,29.0,00.0,39.2,32.2,23.6,0003.2,0019.84,0012.83,0011.56
2022-09-09 14:05:00,,0827.9,5.00,0.00,30.4,29.0,00.0,39.2,32.2,23.6,0003.0,0019.70,0012.73,0011.50
2022-09-09 14:06:00,,0827.9,5.01,0.00,30.4,29.0,00.0,39.2,32.2,23.6,0003.0,0019.88,0012.65,0011.42
2022-09-09 14:07:00,,0827.8,4.99,0.00,30.4,29.1,00.0,39.2,32.2,23.6,0002.6,0020.29,0012.58,0011.36
2022-09-09 14:08:00,,0827.8,5.00,0.00,30.4,29.1,00.0,39.2,32.2,23.5,0002.6,0020.36,0012.52,0011.29
2022-09-09 14:09:00,,0827.8,5.01,0.00,30.4,29.0,00.0,39.2,32.2,23.5,0002.0,0020.22,0012.49,0011.23
2022-09-09 14:10:00,,0827.8,5.01,0.00,30.4,29.0,00.0,39.2,32.2,23.5,0001.9,0020.10,0012.45,0011.17
2022-09-09 14:11:00,,0827.9,5.00,0.00,30.4,29.0,00.0,39.2,32.2,23.4,0001.8,0020.20,0012.42,0011.17
2022-09-09 14:12:00,,0827.9,4.99,0.00,30.4,29.0,00.0,39.2,32.2,23.3,0001.9,0020.22,0012.36,0011.17
2022-09-09 14:13:00,,0827.9,5.00,0.00,30.4,29.0,00.0,39.2,32.2,23.4,0001.6,0020.21,0012.38,0011.18
2022-09-09 14:14:00,,0827.9,5.00,0.00,30.4,29.0,00.0,39.2,32.2,23.4,0001.9,0019.84,0012.39,0011.17
2022-09-09 14:15:00,,0827.9,5.01,0.00,30.4,29.0,00.0,39.2,32.2,23.4,0001.6,0019.06,0012.38,0011.16
2022-09-09 14:16:00,,0827.9,5.00,0.00,30.4,29.0,00.0,39.2,32.2,23.3,0001.7,0019.10,0012.35,0011.14
2022-09-09 14:17:00,,0827.9,4.99,0.00,30.4,29.0,00.0,39.2,32.2,23.4,0001.9,0019.09,0012.33,0011.14
2022-09-09 14:18:00,,0827.8,5.00,0.00,30.4,29.0,00.0,39.2,32.2,23.4,0002.4,0018.44,0012.28,0011.13
2022-09-09 14:19:00,,0827.9,5.01,0.00,30.4,29.0,00.0,39.2,32.2,23.4,0002.3,0019.22,0012.29,0011.11
2022-09-09 14:20:00,,0827.9,5.00,0.00,30.4,29.0,00.0,39.2,32.2,23.3,0002.6,0019.21,0012.26,0011.10
2022-09-09 14:21:00,,0827.9,4.98,0.00,30.4,29.0,00.0,39.2,32.2,23.3,0002.8,0018.93,0012.24,0011.07
2022-09-09 14:22:00,,0827.8,5.00,0.00,30.4,29.0,00.0,39.2,32.2,23.3,0002.4,0018.70,0012.25,0011.05
2022-09-09 14:23:00,,0827.8,5.00,0.00,30.4,29.0,00.0,39.2,32.2,23.4,0002.2,0018.51,0012.25,0011.05
2022-09-09 14:24:00,,0827.9,5.00,0.00,30.4,29.0,00.0,39.2,32.2,23.4,0002.3,0018.56,0012.28,0011.05
2022-09-09 14:25:00,,0827.9,4.99,0.00,30.4,29.0,00.0,39.2,32.2,23.4,0001.9,0018.70,0012.22,0011.03
2022-09-09 14:26:00,,0827.9,4.99,0.00,30.4,29.0,00.0,39.2,32.2,23.3,0002.1,0018.83,0012.13,0010.99
2022-09-09 14:27:00,,0827.9,5.00,0.00,30.4,29.0,00.0,39.2,32.2,23.2,0002.0,0019.31,0012.11,0010.98
2022-09-09 14:28:00,,0827.9,5.00,0.00,30.4,29.0,00.0,39.2,32.2,23.2,0001.7,0019.90,0012.09,0010.94
2022-09-09 14:29:00,,0827.8,5.00,0.00,30.4,29.0,00.0,39.2,32.2,23.3,0001.1,0020.38,0012.08,0010.93
2022-09-09 14:30:00,,0827.8,5.00,0.00,30.4,29.0,00.0,39.2,32.2,23.2,0000.9,0019.52,0012.02,0010.92
2022-09-09 14:31:00,,0827.8,5.01,0.00,30.4,29.0,00.0,39.2,32.2,23.1,0001.1,0019.13,0012.01,0010.90
2022-09-09 14:32:00,,0827.9,5.00,0.00,30.4,29.0,00.0,39.2,32.2,23.1,0000.8,0019.65,0011.99,0010.90
2022-09-09 14:33:00,,0827.9,5.00,0.00,30.4,28.9,00.0,39.2,32.2,23.1,0000.5,0019.53,0011.94,0010.90
2022-09-09 14:34:00,,0827.9,5.01,0.00,30.4,29.0,00.0,39.2,32.2,23.2,0000.7,0019.63,0011.91,0010.88
2022-09-09 14:35:00,,0827.9,4.98,0.00,30.4,29.0,00.0,39.2,32.1,23.3,0000.7,0020.01,0011.78,0010.85
2022-09-09 14:36:00,,0827.8,5.00,0.00,30.4,29.0,00.0,39.2,32.2,23.3,0000.6,0019.98,0011.73,0010.84
2022-09-09 14:37:00,,0827.8,5.00,0.00,30.4,29.0,00.0,39.2,32.2,23.3,0000.7,0019.82,0011.76,0010.86
2022-09-09 14:38:00,,0827.8,5.00,0.00,30.4,29.0,00.0,39.2,32.2,23.3,0001.0,0019.48,0011.78,0010.87
2022-09-09 14:39:00,,0827.9,4.99,0.00,30.4,29.0,00.0,39.2,32.2,23.3,0000.9,0018.84,0011.81,0010.90
2022-09-09 14:40:00,,0827.9,5.00,0.00,30.4,29.0,00.0,39.2,32.2,23.3,0001.0,0018.27,0011.82,0010.91
2022-09-09 14:41:00,,0827.9,5.00,0.00,30.4,29.0,00.0,39.2,32.2,23.4,0001.1,0018.21,0011.86,0010.93
2022-09-09 14:42:00,,0827.8,5.00,0.00,30.4,29.0,00.0,39.2,32.2,23.4,0001.3,0018.40,0011.89,0010.95
2022-09-09 14:43:00,,0827.8,4.98,0.00,30.4,29.0,00.0,39.2,32.2,23.5,0001.3,0017.73,0011.89,0010.94
2022-09-09 14:44:00,,0827.9,5.01,0.00,30.4,29.0,00.0,39.2,32.1,23.3,0001.6,0017.75,0011.92,0010.93
2022-09-09 14:45:00,,0827.8,5.01,0.00,30.4,29.0,00.0,39.2,32.2,23.2,0001.9,0017.62,0011.92,0010.93
2022-09-09 14:46:00,,0827.8,5.00,0.00,30.4,29.0,00.0,39.2,32.2,23.2,0001.9,0016.94,0011.93,0010.95
2022-09-09 14:47:00,,0827.8,4.98,0.00,30.4,29.0,00.0,39.2,32.2,23.2,0002.3,0016.74,0011.94,0010.96
2022-09-09 14:48:00,,0827.7,5.00,0.00,30.4,29.0,00.0,39.2,32.2,23.3,0002.4,0016.53,0011.92,0010.94
2022-09-09 14:49:00,,0827.8,5.00,0.00,30.4,29.0,00.0,39.2,32.2,23.4,0002.1,0016.55,0011.87,0010.93
2022-09-09 14:50:00,,0827.8,5.01,0.00,30.4,29.0,00.0,39.2,32.2,23.3,0002.2,0016.45,0011.88,0010.93
2022-09-09 14:51:00,,0827.7,5.01,0.00,30.4,29.0,00.0,39.2,32.2,23.3,0002.3,0016.35,0011.83,0010.91
2022-09-09 14:52:00,,0827.8,5.00,0.00,30.4,29.0,00.0,39.2,32.2,23.3,0002.6,0016.75,0011.77,0010.90
2022-09-09 14:53:00,,0827.7,5.00,0.00,30.4,29.0,00.0,39.2,32.2,23.2,0002.3,0016.62,0011.72,0010.89
2022-09-09 14:54:00,,0827.7,5.00,0.00,30.4,29.0,00.0,39.2,32.2,23.3,0002.3,0016.86,0011.72,0010.91
2022-09-09 14:55:00,,0827.7,5.01,0.00,30.4,29.0,00.0,39.2,32.2,23.3,0002.2,0016.82,0011.69,0010.93
2022-09-09 14:56:00,,0827.7,5.00,0.00,30.4,29.1,00.0,39.2,32.2,23.3,0002.1,0016.99,0011.71,0010.92
2022-09-09 14:57:00,,0827.7,4.99,0.00,30.4,29.1,00.0,39.2,32.2,23.4,0001.9,0017.03,0011.70,0010.91
2022-09-09 14:58:00,,0827.7,4.99,0.00,30.4,29.1,00.0,39.2,32.2,23.3,0002.0,0016.89,0011.69,0010.90
2022-09-09 14:59:00,,0827.7,5.01,0.00,30.4,29.1,00.0,39.2,32.2,23.3,0001.7,0016.88,0011.72,0010.90
